When you browse on this site, cookies collect data to enhance your experience and personalize the content and advertising you see.
Visit our Privacy Policy to learn more. By continuing to use the site, you agree to this use of cookies and data.
  • In Austria
  • List of Countries
  • For 7 days
  • Water Temperature
  • Weather Map
  • News
  • Weather Widgets
  • user-avatar
    Login

    Hourly Weather Zas'ky

    Today, 25 August, Sunday

    Time Temperature Precipitation Wind Pressure Humidity
    00:00 +15°C° 0 mm 1 mps 754 mmHg 70%
    01:00 +14°C° 0 mm 1 mps 754 mmHg 72%
    02:00 +14°C° 0 mm 1 mps 754 mmHg 76%
    03:00 +14°C° 0 mm 1 mps 754 mmHg 77%
    04:00 +14°C° 0 mm 1 mps 754 mmHg 78%
    05:00 +14°C° 0 mm 1 mps 754 mmHg 79%
    06:00 +15°C° 0 mm 1 mps 754 mmHg 74%
    07:00 +18°C° 0 mm 1 mps 754 mmHg 69%
    08:00 +19°C° 0 mm 2 mps 755 mmHg 64%
    09:00 +21°C° 0 mm 2 mps 755 mmHg 58%
    10:00 +24°C° 0 mm 2 mps 755 mmHg 53%
    11:00 +25°C° 0 mm 2 mps 755 mmHg 47%
    12:00 +26°C° 0 mm 2 mps 754 mmHg 44%
    13:00 +27°C° 0 mm 2 mps 754 mmHg 41%
    14:00 +28°C° 0 mm 2 mps 754 mmHg 37%
    15:00 +27°C° 0 mm 2 mps 754 mmHg 40%
    16:00 +27°C° 0 mm 2 mps 754 mmHg 43%
    17:00 +27°C° 0 mm 2 mps 753 mmHg 46%
    18:00 +24°C° 0 mm 2 mps 754 mmHg 52%
    19:00 +21°C° 0 mm 2 mps 754 mmHg 59%
    20:00 +19°C° 0 mm 2 mps 754 mmHg 66%
    21:00 +19°C° 0 mm 2 mps 754 mmHg 71%
    22:00 +18°C° 0 mm 2 mps 754 mmHg 76%
    23:00 +17°C° 0 mm 2 mps 754 mmHg 81%

    Tomorrow, 26 August, Monday

    Time Temperature Precipitation Wind Pressure Humidity
    00:00 +17°C° 0 mm 2 mps 754 mmHg 84%
    01:00 +16°C° 0 mm 2 mps 755 mmHg 86%
    02:00 +16°C° 0 mm 2 mps 755 mmHg 89%
    03:00 +16°C° 0 mm 2 mps 755 mmHg 90%
    04:00 +15°C° 0 mm 2 mps 755 mmHg 91%
    05:00 +15°C° 0 mm 1 mps 755 mmHg 93%
    06:00 +17°C° 0 mm 2 mps 755 mmHg 86%
    07:00 +18°C° 0 mm 2 mps 755 mmHg 79%
    08:00 +20°C° 0 mm 2 mps 755 mmHg 73%
    09:00 +23°C° 0 mm 2 mps 755 mmHg 67%
    10:00 +24°C° 0 mm 2 mps 755 mmHg 60%
    11:00 +26°C° 0 mm 2 mps 755 mmHg 54%
    12:00 +27°C° 0 mm 2 mps 755 mmHg 51%
    13:00 +27°C° 0 mm 2 mps 755 mmHg 49%
    14:00 +28°C° 0 mm 2 mps 754 mmHg 46%
    15:00 +28°C° 0 mm 2 mps 754 mmHg 47%
    16:00 +27°C° 0 mm 1 mps 754 mmHg 49%
    17:00 +27°C° 0 mm 1 mps 753 mmHg 50%
    18:00 +25°C° 0 mm 1 mps 753 mmHg 56%
    19:00 +23°C° 0 mm 1 mps 753 mmHg 62%
    20:00 +21°C° 0 mm 1 mps 753 mmHg 68%
    21:00 +20°C° 0 mm 1 mps 753 mmHg 70%
    22:00 +19°C° 0 mm 1 mps 753 mmHg 73%
    23:00 +19°C° 0 mm 1 mps 753 mmHg 75%

    Day after tomorrow, 27 August, Tuesday

    Time Temperature Precipitation Wind Pressure Humidity
    00:00 +18°C° 0 mm 1 mps 753 mmHg 76%
    01:00 +18°C° 0 mm 1 mps 753 mmHg 77%
    02:00 +16°C° 0 mm 1 mps 753 mmHg 79%
    03:00 +15°C° 0 mm 0 mps 753 mmHg 79%
    04:00 +14°C° 0 mm 0 mps 753 mmHg 80%
    05:00 +14°C° 0 mm 0 mps 753 mmHg 81%
    06:00 +16°C° 0 mm 0 mps 753 mmHg 74%
    07:00 +18°C° 0 mm 0 mps 753 mmHg 68%
    08:00 +20°C° 0 mm 0 mps 754 mmHg 62%
    09:00 +24°C° 0 mm 1 mps 754 mmHg 57%
    10:00 +25°C° 0 mm 1 mps 753 mmHg 53%
    11:00 +27°C° 0 mm 1 mps 753 mmHg 49%
    12:00 +27°C° 0 mm 2 mps 753 mmHg 47%
    13:00 +28°C° 0 mm 2 mps 753 mmHg 45%
    14:00 +28°C° 0 mm 2 mps 753 mmHg 43%
    15:00 +28°C° 0 mm 2 mps 753 mmHg 46%
    16:00 +27°C° 0 mm 2 mps 753 mmHg 50%
    17:00 +27°C° 0 mm 2 mps 752 mmHg 53%
    18:00 +25°C° 0 mm 2 mps 752 mmHg 59%
    19:00 +23°C° 0 mm 2 mps 752 mmHg 65%
    20:00 +21°C° 0 mm 1 mps 752 mmHg 71%
    21:00 +20°C° 0 mm 1 mps 753 mmHg 75%
    22:00 +20°C° 0 mm 1 mps 753 mmHg 78%
    23:00 +19°C° 0 mm 1 mps 753 mmHg 82%

    28 August, Wednesday

    Time Temperature Precipitation Wind Pressure Humidity
    00:00 +18°C° 0 mm 1 mps 753 mmHg 85%
    01:00 +18°C° 0 mm 1 mps 753 mmHg 88%
    02:00 +18°C° 0 mm 1 mps 753 mmHg 91%
    03:00 +16°C° 0 mm 1 mps 753 mmHg 92%
    04:00 +16°C° 0 mm 1 mps 753 mmHg 92%
    05:00 +16°C° 0 mm 1 mps 753 mmHg 93%
    06:00 +18°C° 0 mm 1 mps 753 mmHg 86%
    07:00 +20°C° 0 mm 1 mps 753 mmHg 80%
    08:00 +21°C° 0 mm 1 mps 753 mmHg 73%
    09:00 +23°C° 0 mm 2 mps 753 mmHg 66%
    10:00 +24°C° 0 mm 2 mps 753 mmHg 60%
    11:00 +26°C° 0 mm 2 mps 753 mmHg 54%
    12:00 +26°C° 0 mm 2 mps 753 mmHg 52%
    13:00 +26°C° 0 mm 2 mps 752 mmHg 51%
    14:00 +26°C° 0 mm 2 mps 752 mmHg 50%
    15:00 +26°C° 0 mm 2 mps 752 mmHg 50%
    16:00 +26°C° 0 mm 2 mps 752 mmHg 50%
    17:00 +26°C° 0 mm 2 mps 752 mmHg 50%
    18:00 +24°C° 0 mm 2 mps 752 mmHg 55%
    19:00 +21°C° 0 mm 2 mps 752 mmHg 61%
    20:00 +19°C° 0 mm 3 mps 752 mmHg 67%
    21:00 +18°C° 0 mm 3 mps 752 mmHg 68%
    22:00 +17°C° 0 mm 3 mps 752 mmHg 69%
    23:00 +17°C° 0 mm 3 mps 752 mmHg 70%

    29 August, Thursday

    Time Temperature Precipitation Wind Pressure Humidity
    00:00 +16°C° 0 mm 3 mps 752 mmHg 72%
    01:00 +14°C° 0 mm 3 mps 752 mmHg 74%
    02:00 +13°C° 0 mm 3 mps 752 mmHg 76%
    03:00 +13°C° 0 mm 3 mps 752 mmHg 78%
    04:00 +13°C° 0 mm 2 mps 753 mmHg 81%
    05:00 +13°C° 0 mm 2 mps 753 mmHg 83%
    06:00 +13°C° 0 mm 3 mps 753 mmHg 78%
    07:00 +14°C° 0 mm 3 mps 753 mmHg 73%
    08:00 +17°C° 0 mm 3 mps 753 mmHg 68%
    09:00 +18°C° 0 mm 3 mps 753 mmHg 62%
    10:00 +20°C° 0 mm 4 mps 753 mmHg 55%
    11:00 +21°C° 0 mm 4 mps 753 mmHg 49%
    12:00 +22°C° 0 mm 4 mps 753 mmHg 46%
    13:00 +22°C° 0 mm 4 mps 752 mmHg 44%
    14:00 +23°C° 0 mm 4 mps 752 mmHg 42%
    15:00 +23°C° 0 mm 4 mps 752 mmHg 43%
    16:00 +22°C° 0 mm 3 mps 752 mmHg 44%
    17:00 +22°C° 0 mm 3 mps 751 mmHg 44%
    18:00 +20°C° 0 mm 3 mps 751 mmHg 46%
    19:00 +18°C° 0 mm 3 mps 751 mmHg 48%
    20:00 +16°C° 0 mm 3 mps 751 mmHg 50%
    21:00 +14°C° 0 mm 3 mps 751 mmHg 50%
    22:00 +13°C° 0 mm 3 mps 752 mmHg 50%
    23:00 +12°C° 0 mm 3 mps 752 mmHg 51%

    30 August, Friday

    Time Temperature Precipitation Wind Pressure Humidity
    00:00 +11°C° 0 mm 3 mps 752 mmHg 53%
    01:00 +12°C° 0 mm 2 mps 752 mmHg 55%
    02:00 +10°C° 0 mm 2 mps 752 mmHg 57%
    03:00 +10°C° 0 mm 2 mps 752 mmHg 59%
    04:00 +10°C° 0 mm 2 mps 752 mmHg 60%
    05:00 +9°C° 0 mm 2 mps 752 mmHg 61%
    06:00 +12°C° 0 mm 2 mps 752 mmHg 58%
    07:00 +13°C° 0 mm 3 mps 752 mmHg 55%
    08:00 +16°C° 0 mm 3 mps 752 mmHg 52%
    09:00 +18°C° 0 mm 3 mps 752 mmHg 47%
    10:00 +20°C° 0 mm 3 mps 752 mmHg 42%
    11:00 +22°C° 0 mm 4 mps 752 mmHg 37%
    12:00 +22°C° 0 mm 4 mps 752 mmHg 36%
    13:00 +23°C° 0 mm 4 mps 752 mmHg 35%
    14:00 +25°C° 0 mm 4 mps 752 mmHg 35%
    15:00 +25°C° 0 mm 3 mps 752 mmHg 38%
    16:00 +24°C° 0 mm 3 mps 751 mmHg 41%
    17:00 +24°C° 0 mm 2 mps 751 mmHg 45%
    18:00 +21°C° 0 mm 2 mps 751 mmHg 51%
    19:00 +19°C° 0 mm 2 mps 751 mmHg 57%
    20:00 +17°C° 0 mm 2 mps 751 mmHg 63%
    21:00 +16°C° 0 mm 2 mps 751 mmHg 65%
    22:00 +16°C° 0 mm 2 mps 752 mmHg 67%
    23:00 +15°C° 0 mm 2 mps 752 mmHg 69%
    Show more